owner,sensor,date,latitude,longitude,dew_point_temperature,qcFlag 
ADCP,ioos:station:wmo:42887:1,2013-05-19T06:00:00Z,28.1910,-88.4960,23.4,11111222 
ADCP,ioos:station:wmo:42887:1,2013-05-19T06:20:00Z,28.1910,-88.4960,23.4,11111222 
ADCP,ioos:station:wmo:42887:1,2013-05-19T06:40:00Z,28.1910,-88.4960,23.1,11111222 
ADCP,ioos:station:wmo:42887:1,2013-05-19T07:00:00Z,28.1910,-88.4960,22.9,11111222 
ADCP,ioos:station:wmo:42887:1,2013-05-19T07:20:00Z,28.1910,-88.4960,22.9,11111222 
ADCP,ioos:station:wmo:42887:1,2013-05-19T07:40:00Z,28.1910,-88.4960,22.6,11111222 
ADCP,ioos:station:wmo:42887:1,2013-05-19T08:00:00Z,28.1910,-88.4960,22.5,11111222 
ADCP,ioos:station:wmo:42887:1,2013-05-19T08:20:00Z,28.1910,-88.4960,22.5,11111222 
ADCP,ioos:station:wmo:42887:1,2013-05-19T08:40:00Z,28.1910,-88.4960,22.7,11111222 
ADCP,ioos:station:wmo:42887:1,2013-05-19T09:00:00Z,28.1910,-88.4960,22.9,11111222 
ADCP,ioos:station:wmo:42887:1,2013-05-19T09:20:00Z,28.1910,-88.4960,22.7,11111222 
ADCP,ioos:station:wmo:42887:1,2013-05-19T09:40:00Z,28.1910,-88.4960,22.8,11111222 
ADCP,ioos:station:wmo:42887:1,2013-05-19T10:00:00Z,28.1910,-88.4960,22.8,11111222 
ADCP,ioos:station:wmo:42887:1,2013-05-19T10:20:00Z,28.1910,-88.4960,22.9,11111222 
ADCP,ioos:station:wmo:42887:1,2013-05-19T10:40:00Z,28.1910,-88.4960,22.9,11111222 
ADCP,ioos:station:wmo:42887:1,2013-05-19T11:00:00Z,28.1910,-88.4960,22.9,11111222 
ADCP,ioos:station:wmo:42887:1,2013-05-19T11:20:00Z,28.1910,-88.4960,22.9,11111222 
ADCP,ioos:station:wmo:42887:1,2013-05-19T11:40:00Z,28.1910,-88.4960,23.0,11111222 
ADCP,ioos:station:wmo:42887:1,2013-05-19T12:00:00Z,28.1910,-88.4960,23.0,11111222 
ADCP,ioos:station:wmo:42887:1,2013-05-19T12:20:00Z,28.1910,-88.4960,23.1,11111222 
ADCP,ioos:station:wmo:42887:1,2013-05-19T12:40:00Z,28.1910,-88.4960,23.0,11111222 
ADCP,ioos:station:wmo:42887:1,2013-05-19T13:00:00Z,28.1910,-88.4960,22.9,11111222 
ADCP,ioos:station:wmo:42887:1,2013-05-19T13:20:00Z,28.1910,-88.4960,22.6,11111222 
ADCP,ioos:station:wmo:42887:1,2013-05-19T13:40:00Z,28.1910,-88.4960,22.5,11111222 
ADCP,ioos:station:wmo:42887:1,2013-05-19T14:00:00Z,28.1910,-88.4960,22.7,11111222 
ADCP,ioos:station:wmo:42887:1,2013-05-19T14:20:00Z,28.1910,-88.4960,22.6,11111222 
ADCP,ioos:station:wmo:42887:1,2013-05-19T14:40:00Z,28.1910,-88.4960,22.9,11111222 
ADCP,ioos:station:wmo:42887:1,2013-05-19T15:00:00Z,28.1910,-88.4960,22.5,11111222 
ADCP,ioos:station:wmo:42887:1,2013-05-19T15:20:00Z,28.1910,-88.4960,22.3,11111222 
ADCP,ioos:station:wmo:42887:1,2013-05-19T15:40:00Z,28.1910,-88.4960,22.5,11111222 
ADCP,ioos:station:wmo:42887:1,2013-05-19T16:00:00Z,28.1910,-88.4960,22.6,11111222 
ADCP,ioos:station:wmo:42887:1,2013-05-19T16:20:00Z,28.1910,-88.4960,22.4,11111222 
ADCP,ioos:station:wmo:42887:1,2013-05-19T16:40:00Z,28.1910,-88.4960,22.4,11111222 
ADCP,ioos:station:wmo:42887:1,2013-05-19T17:00:00Z,28.1910,-88.4960,22.4,11111222 
ADCP,ioos:station:wmo:42887:1,2013-05-19T17:20:00Z,28.1910,-88.4960,23.2,11111222 
ADCP,ioos:station:wmo:42887:1,2013-05-19T17:40:00Z,28.1910,-88.4960,23.3,11111222 
ADCP,ioos:station:wmo:42887:1,2013-05-19T18:00:00Z,28.1910,-88.4960,23.4,11111222 
ADCP,ioos:station:wmo:42887:1,2013-05-19T18:20:00Z,28.1910,-88.4960,23.6,11111222 
ADCP,ioos:station:wmo:42887:1,2013-05-19T18:40:00Z,28.1910,-88.4960,23.6,11111222 
ADCP,ioos:station:wmo:42887:1,2013-05-19T19:00:00Z,28.1910,-88.4960,23.5,11111222 
ADCP,ioos:station:wmo:42887:1,2013-05-19T19:20:00Z,28.1910,-88.4960,23.5,11111222 
ADCP,ioos:station:wmo:42887:1,2013-05-19T19:40:00Z,28.1910,-88.4960,23.2,11111222 
ADCP,ioos:station:wmo:42887:1,2013-05-19T20:00:00Z,28.1910,-88.4960,23.1,11111222 
ADCP,ioos:station:wmo:42887:1,2013-05-19T20:20:00Z,28.1910,-88.4960,23.0,11111222 
ADCP,ioos:station:wmo:42887:1,2013-05-19T20:40:00Z,28.1910,-88.4960,22.8,11111222 
ADCP,ioos:station:wmo:42887:1,2013-05-19T21:00:00Z,28.1910,-88.4960,22.5,11111222 
ADCP,ioos:station:wmo:42887:1,2013-05-19T21:20:00Z,28.1910,-88.4960,22.8,11111222 
ADCP,ioos:station:wmo:42887:1,2013-05-19T21:40:00Z,28.1910,-88.4960,22.9,11111222 
ADCP,ioos:station:wmo:42887:1,2013-05-19T22:00:00Z,28.1910,-88.4960,22.9,11111222 
ADCP,ioos:station:wmo:42887:1,2013-05-19T22:20:00Z,28.1910,-88.4960,22.9,11111222 
ADCP,ioos:station:wmo:42887:1,2013-05-19T22:40:00Z,28.1910,-88.4960,23.0,11111222 
ADCP,ioos:station:wmo:42887:1,2013-05-19T23:00:00Z,28.1910,-88.4960,23.1,11111222 
ADCP,ioos:station:wmo:42887:1,2013-05-19T23:20:00Z,28.1910,-88.4960,23.2,11111222 
ADCP,ioos:station:wmo:42887:1,2013-05-19T23:40:00Z,28.1910,-88.4960,23.5,11111222 
ADCP,ioos:station:wmo:42887:1,2013-05-20T00:00:00Z,28.1910,-88.4960,23.6,11111222 
ADCP,ioos:station:wmo:42887:1,2013-05-20T00:20:00Z,28.1910,-88.4960,23.6,11111222 
ADCP,ioos:station:wmo:42887:1,2013-05-20T00:40:00Z,28.1910,-88.4960,23.6,11111222 
ADCP,ioos:station:wmo:42887:1,2013-05-20T01:00:00Z,28.1910,-88.4960,23.5,11111222 
ADCP,ioos:station:wmo:42887:1,2013-05-20T01:20:00Z,28.1910,-88.4960,23.6,11111222 
ADCP,ioos:station:wmo:42887:1,2013-05-20T01:40:00Z,28.1910,-88.4960,23.8,11111222 
ADCP,ioos:station:wmo:42887:1,2013-05-20T02:00:00Z,28.1910,-88.4960,23.9,11111222 
ADCP,ioos:station:wmo:42887:1,2013-05-20T02:20:00Z,28.1910,-88.4960,23.8,11111222 
ADCP,ioos:station:wmo:42887:1,2013-05-20T02:40:00Z,28.1910,-88.4960,24.0,11111222 
ADCP,ioos:station:wmo:42887:1,2013-05-20T03:00:00Z,28.1910,-88.4960,24.0,11111222 
ADCP,ioos:station:wmo:42887:1,2013-05-20T03:20:00Z,28.1910,-88.4960,24.0,11111222 
ADCP,ioos:station:wmo:42887:1,2013-05-20T03:40:00Z,28.1910,-88.4960,23.8,11111222 
ADCP,ioos:station:wmo:42887:1,2013-05-20T04:00:00Z,28.1910,-88.4960,23.9,11111222 
ADCP,ioos:station:wmo:42887:1,2013-05-20T04:20:00Z,28.1910,-88.4960,24.0,11111222 
ADCP,ioos:station:wmo:42887:1,2013-05-20T04:40:00Z,28.1910,-88.4960,24.0,11111222 
ADCP,ioos:station:wmo:42887:1,2013-05-20T05:00:00Z,28.1910,-88.4960,24.0,11111222 
ADCP,ioos:station:wmo:42887:1,2013-05-20T05:20:00Z,28.1910,-88.4960,24.0,11111222 
ADCP,ioos:station:wmo:42887:1,2013-05-20T05:40:00Z,28.1910,-88.4960,23.9,11111222 
ADCP,ioos:station:wmo:42887:1,2013-05-20T06:00:00Z,28.1910,-88.4960,24.0,11111222 
ADCP,ioos:station:wmo:42887:1,2013-05-20T06:20:00Z,28.1910,-88.4960,23.9,11111222 
ADCP,ioos:station:wmo:42887:1,2013-05-20T06:40:00Z,28.1910,-88.4960,23.9,11111222 
ADCP,ioos:station:wmo:42887:1,2013-05-20T07:00:00Z,28.1910,-88.4960,23.9,11111222 
ADCP,ioos:station:wmo:42887:1,2013-05-20T07:20:00Z,28.1910,-88.4960,23.8,11111222 
ADCP,ioos:station:wmo:42887:1,2013-05-20T07:40:00Z,28.1910,-88.4960,23.7,11111222 
ADCP,ioos:station:wmo:42887:1,2013-05-20T08:00:00Z,28.1910,-88.4960,23.4,11111222 
ADCP,ioos:station:wmo:42887:1,2013-05-20T08:20:00Z,28.1910,-88.4960,22.6,11111222 
ADCP,ioos:station:wmo:42887:1,2013-05-20T08:40:00Z,28.1910,-88.4960,23.0,11111222 
ADCP,ioos:station:wmo:42887:1,2013-05-20T09:00:00Z,28.1910,-88.4960,22.9,11111222 
ADCP,ioos:station:wmo:42887:1,2013-05-20T09:20:00Z,28.1910,-88.4960,23.1,11111222 
ADCP,ioos:station:wmo:42887:1,2013-05-20T09:40:00Z,28.1910,-88.4960,23.2,11111222 
ADCP,ioos:station:wmo:42887:1,2013-05-20T10:00:00Z,28.1910,-88.4960,23.3,11111222 
ADCP,ioos:station:wmo:42887:1,2013-05-20T10:20:00Z,28.1910,-88.4960,23.5,11111222 
ADCP,ioos:station:wmo:42887:1,2013-05-20T10:40:00Z,28.1910,-88.4960,23.5,11111222 
ADCP,ioos:station:wmo:42887:1,2013-05-20T11:00:00Z,28.1910,-88.4960,23.6,11111222 
ADCP,ioos:station:wmo:42887:1,2013-05-20T11:20:00Z,28.1910,-88.4960,23.6,11111222 
ADCP,ioos:station:wmo:42887:1,2013-05-20T11:40:00Z,28.1910,-88.4960,23.8,11111222 
ADCP,ioos:station:wmo:42887:1,2013-05-20T12:00:00Z,28.1910,-88.4960,23.7,11111222 
ADCP,ioos:station:wmo:42887:1,2013-05-20T12:20:00Z,28.1910,-88.4960,23.4,11111222 
ADCP,ioos:station:wmo:42887:1,2013-05-20T12:40:00Z,28.1910,-88.4960,23.4,11111222 
ADCP,ioos:station:wmo:42887:1,2013-05-20T13:00:00Z,28.1910,-88.4960,23.4,11111222 
ADCP,ioos:station:wmo:42887:1,2013-05-20T13:20:00Z,28.1910,-88.4960,23.1,11111222 
ADCP,ioos:station:wmo:42887:1,2013-05-20T13:40:00Z,28.1910,-88.4960,22.7,11111222 
ADCP,ioos:station:wmo:42887:1,2013-05-20T14:00:00Z,28.1910,-88.4960,22.4,11111222 
ADCP,ioos:station:wmo:42887:1,2013-05-20T14:20:00Z,28.1910,-88.4960,21.6,11111222 
ADCP,ioos:station:wmo:42887:1,2013-05-20T14:40:00Z,28.1910,-88.4960,20.8,11111222 
ADCP,ioos:station:wmo:42887:1,2013-05-20T15:00:00Z,28.1910,-88.4960,21.0,11111222 
ADCP,ioos:station:wmo:42887:1,2013-05-20T15:20:00Z,28.1910,-88.4960,20.8,11111222 
ADCP,ioos:station:wmo:42887:1,2013-05-20T15:40:00Z,28.1910,-88.4960,20.4,11111222 
ADCP,ioos:station:wmo:42887:1,2013-05-20T16:00:00Z,28.1910,-88.4960,20.5,11111222 
ADCP,ioos:station:wmo:42887:1,2013-05-20T16:20:00Z,28.1910,-88.4960,20.8,11111222 
ADCP,ioos:station:wmo:42887:1,2013-05-20T16:40:00Z,28.1910,-88.4960,21.3,11111222 
ADCP,ioos:station:wmo:42887:1,2013-05-20T17:00:00Z,28.1910,-88.4960,21.4,11111222 
ADCP,ioos:station:wmo:42887:1,2013-05-20T17:20:00Z,28.1910,-88.4960,21.2,11111222 
ADCP,ioos:station:wmo:42887:1,2013-05-20T17:40:00Z,28.1910,-88.4960,19.7,11111222 
ADCP,ioos:station:wmo:42887:1,2013-05-20T18:00:00Z,28.1910,-88.4960,19.9,11111222 
ADCP,ioos:station:wmo:42887:1,2013-05-20T18:20:00Z,28.1910,-88.4960,20.0,11111222 
ADCP,ioos:station:wmo:42887:1,2013-05-20T18:40:00Z,28.1910,-88.4960,20.0,11111222 
ADCP,ioos:station:wmo:42887:1,2013-05-20T19:00:00Z,28.1910,-88.4960,20.3,11111222 
ADCP,ioos:station:wmo:42887:1,2013-05-20T19:20:00Z,28.1910,-88.4960,20.4,11111222 
ADCP,ioos:station:wmo:42887:1,2013-05-20T19:40:00Z,28.1910,-88.4960,20.9,11111222 
ADCP,ioos:station:wmo:42887:1,2013-05-20T20:00:00Z,28.1910,-88.4960,20.6,11111222 
ADCP,ioos:station:wmo:42887:1,2013-05-20T20:20:00Z,28.1910,-88.4960,20.3,11111222 
ADCP,ioos:station:wmo:42887:1,2013-05-20T20:40:00Z,28.1910,-88.4960,20.4,11111222 
ADCP,ioos:station:wmo:42887:1,2013-05-20T21:00:00Z,28.1910,-88.4960,20.3,11111222 
ADCP,ioos:station:wmo:42887:1,2013-05-20T21:20:00Z,28.1910,-88.4960,20.2,11111222 
ADCP,ioos:station:wmo:42887:1,2013-05-20T21:40:00Z,28.1910,-88.4960,20.0,11111222 
ADCP,ioos:station:wmo:42887:1,2013-05-20T22:00:00Z,28.1910,-88.4960,19.9,11111222 
ADCP,ioos:station:wmo:42887:1,2013-05-20T22:20:00Z,28.1910,-88.4960,19.8,11111222 
ADCP,ioos:station:wmo:42887:1,2013-05-20T22:40:00Z,28.1910,-88.4960,20.0,11111222 
ADCP,ioos:station:wmo:42887:1,2013-05-20T23:00:00Z,28.1910,-88.4960,20.2,11111222 
ADCP,ioos:station:wmo:42887:1,2013-05-20T23:20:00Z,28.1910,-88.4960,20.1,11111222 
ADCP,ioos:station:wmo:42887:1,2013-05-20T23:40:00Z,28.1910,-88.4960,20.3,11111222 
ADCP,ioos:station:wmo:42887:1,2013-05-21T00:00:00Z,28.1910,-88.4960,20.3,11111222 
ADCP,ioos:station:wmo:42887:1,2013-05-21T00:20:00Z,28.1910,-88.4960,20.4,11111222 
ADCP,ioos:station:wmo:42887:1,2013-05-21T00:40:00Z,28.1910,-88.4960,20.1,11111222 
ADCP,ioos:station:wmo:42887:1,2013-05-21T01:00:00Z,28.1910,-88.4960,19.8,11111222 
ADCP,ioos:station:wmo:42887:1,2013-05-21T01:20:00Z,28.1910,-88.4960,19.8,11111222 
ADCP,ioos:station:wmo:42887:1,2013-05-21T01:40:00Z,28.1910,-88.4960,19.5,11111222 
ADCP,ioos:station:wmo:42887:1,2013-05-21T02:00:00Z,28.1910,-88.4960,20.0,11111222 
ADCP,ioos:station:wmo:42887:1,2013-05-21T02:20:00Z,28.1910,-88.4960,21.1,11111222 
ADCP,ioos:station:wmo:42887:1,2013-05-21T02:40:00Z,28.1910,-88.4960,22.8,11111222 
ADCP,ioos:station:wmo:42887:1,2013-05-21T03:00:00Z,28.1910,-88.4960,23.0,11111222 
ADCP,ioos:station:wmo:42887:1,2013-05-21T03:20:00Z,28.1910,-88.4960,20.7,11111222 
ADCP,ioos:station:wmo:42887:1,2013-05-21T03:40:00Z,28.1910,-88.4960,20.2,11111222 
ADCP,ioos:station:wmo:42887:1,2013-05-21T04:00:00Z,28.1910,-88.4960,20.6,11111222 
ADCP,ioos:station:wmo:42887:1,2013-05-21T04:20:00Z,28.1910,-88.4960,20.4,11111222 
ADCP,ioos:station:wmo:42887:1,2013-05-21T04:40:00Z,28.1910,-88.4960,20.3,11111222 
ADCP,ioos:station:wmo:42887:1,2013-05-21T05:20:00Z,28.1910,-88.4960,19.8,11111222 
ADCP,ioos:station:wmo:42887:1,2013-05-21T05:40:00Z,28.1910,-88.4960,19.5,11111222 
ADCP,ioos:station:wmo:42887:1,2013-05-21T06:00:00Z,28.1910,-88.4960,19.3,11111222 
ADCP,ioos:station:wmo:42887:1,2013-05-21T06:20:00Z,28.1910,-88.4960,19.2,11111222 
ADCP,ioos:station:wmo:42887:1,2013-05-21T06:40:00Z,28.1910,-88.4960,19.0,11111222 
ADCP,ioos:station:wmo:42887:1,2013-05-21T07:00:00Z,28.1910,-88.4960,19.0,11111222 
ADCP,ioos:station:wmo:42887:1,2013-05-21T07:20:00Z,28.1910,-88.4960,19.4,11111222 
ADCP,ioos:station:wmo:42887:1,2013-05-21T07:40:00Z,28.1910,-88.4960,19.4,11111222 
ADCP,ioos:station:wmo:42887:1,2013-05-21T08:00:00Z,28.1910,-88.4960,19.5,11111222 
ADCP,ioos:station:wmo:42887:1,2013-05-21T08:20:00Z,28.1910,-88.4960,19.1,11111222 
ADCP,ioos:station:wmo:42887:1,2013-05-21T08:40:00Z,28.1910,-88.4960,19.4,11111222 
ADCP,ioos:station:wmo:42887:1,2013-05-21T09:00:00Z,28.1910,-88.4960,19.4,11111222 
ADCP,ioos:station:wmo:42887:1,2013-05-21T09:20:00Z,28.1910,-88.4960,19.5,11111222 
ADCP,ioos:station:wmo:42887:1,2013-05-21T09:40:00Z,28.1910,-88.4960,19.4,11111222 
ADCP,ioos:station:wmo:42887:1,2013-05-21T10:00:00Z,28.1910,-88.4960,19.6,11111222 
ADCP,ioos:station:wmo:42887:1,2013-05-21T10:20:00Z,28.1910,-88.4960,19.6,11111222 
ADCP,ioos:station:wmo:42887:1,2013-05-21T10:40:00Z,28.1910,-88.4960,19.6,11111222 
ADCP,ioos:station:wmo:42887:1,2013-05-21T11:00:00Z,28.1910,-88.4960,20.3,11111222 
ADCP,ioos:station:wmo:42887:1,2013-05-21T11:20:00Z,28.1910,-88.4960,20.7,11111222 
ADCP,ioos:station:wmo:42887:1,2013-05-21T11:40:00Z,28.1910,-88.4960,20.6,11111222 
ADCP,ioos:station:wmo:42887:1,2013-05-21T12:00:00Z,28.1910,-88.4960,20.5,11111222 
ADCP,ioos:station:wmo:42887:1,2013-05-21T12:20:00Z,28.1910,-88.4960,20.6,11111222 
ADCP,ioos:station:wmo:42887:1,2013-05-21T12:40:00Z,28.1910,-88.4960,20.8,11111222 
ADCP,ioos:station:wmo:42887:1,2013-05-21T13:00:00Z,28.1910,-88.4960,20.5,11111222 
ADCP,ioos:station:wmo:42887:1,2013-05-21T13:20:00Z,28.1910,-88.4960,20.4,11111222 
ADCP,ioos:station:wmo:42887:1,2013-05-21T13:40:00Z,28.1910,-88.4960,20.3,11111222 
ADCP,ioos:station:wmo:42887:1,2013-05-21T14:00:00Z,28.1910,-88.4960,20.2,11111222 
ADCP,ioos:station:wmo:42887:1,2013-05-21T14:20:00Z,28.1910,-88.4960,20.2,11111222 
ADCP,ioos:station:wmo:42887:1,2013-05-21T14:40:00Z,28.1910,-88.4960,20.2,11111222 
ADCP,ioos:station:wmo:42887:1,2013-05-21T15:00:00Z,28.1910,-88.4960,20.2,11111222 
ADCP,ioos:station:wmo:42887:1,2013-05-21T15:20:00Z,28.1910,-88.4960,20.4,11111222 
ADCP,ioos:station:wmo:42887:1,2013-05-21T15:40:00Z,28.1910,-88.4960,20.5,11111222 
ADCP,ioos:station:wmo:42887:1,2013-05-21T16:00:00Z,28.1910,-88.4960,20.6,11111222 
ADCP,ioos:station:wmo:42887:1,2013-05-21T16:20:00Z,28.1910,-88.4960,20.6,11111222 
ADCP,ioos:station:wmo:42887:1,2013-05-21T16:40:00Z,28.1910,-88.4960,20.6,11111222 
ADCP,ioos:station:wmo:42887:1,2013-05-21T17:00:00Z,28.1910,-88.4960,20.3,11111222 
ADCP,ioos:station:wmo:42887:1,2013-05-21T17:20:00Z,28.1910,-88.4960,20.2,11111222 
ADCP,ioos:station:wmo:42887:1,2013-05-21T17:40:00Z,28.1910,-88.4960,20.2,11111222 
ADCP,ioos:station:wmo:42887:1,2013-05-21T18:20:00Z,28.1910,-88.4960,20.4,11111222 
ADCP,ioos:station:wmo:42887:1,2013-05-21T18:40:00Z,28.1910,-88.4960,20.4,11111222 
ADCP,ioos:station:wmo:42887:1,2013-05-21T19:00:00Z,28.1910,-88.4960,20.7,11111222 
ADCP,ioos:station:wmo:42887:1,2013-05-21T19:20:00Z,28.1910,-88.4960,20.9,11111222 
ADCP,ioos:station:wmo:42887:1,2013-05-21T19:40:00Z,28.1910,-88.4960,21.0,11111222 
ADCP,ioos:station:wmo:42887:1,2013-05-21T20:00:00Z,28.1910,-88.4960,20.9,11111222 
ADCP,ioos:station:wmo:42887:1,2013-05-21T20:20:00Z,28.1910,-88.4960,21.6,11111222 
ADCP,ioos:station:wmo:42887:1,2013-05-21T20:40:00Z,28.1910,-88.4960,21.7,11111222 
ADCP,ioos:station:wmo:42887:1,2013-05-21T21:00:00Z,28.1910,-88.4960,22.1,11111222 
ADCP,ioos:station:wmo:42887:1,2013-05-21T21:20:00Z,28.1910,-88.4960,22.3,11111222 
ADCP,ioos:station:wmo:42887:1,2013-05-21T21:40:00Z,28.1910,-88.4960,22.2,11111222 
ADCP,ioos:station:wmo:42887:1,2013-05-21T22:00:00Z,28.1910,-88.4960,22.4,11111222 
ADCP,ioos:station:wmo:42887:1,2013-05-21T22:20:00Z,28.1910,-88.4960,22.7,11111222 
ADCP,ioos:station:wmo:42887:1,2013-05-21T22:40:00Z,28.1910,-88.4960,22.8,11111222 
ADCP,ioos:station:wmo:42887:1,2013-05-21T23:00:00Z,28.1910,-88.4960,22.8,11111222 
ADCP,ioos:station:wmo:42887:1,2013-05-21T23:20:00Z,28.1910,-88.4960,21.4,11111222 
ADCP,ioos:station:wmo:42887:1,2013-05-21T23:40:00Z,28.1910,-88.4960,20.6,11111222 
ADCP,ioos:station:wmo:42887:1,2013-05-22T00:00:00Z,28.1910,-88.4960,20.9,11111222 
ADCP,ioos:station:wmo:42887:1,2013-05-22T00:20:00Z,28.1910,-88.4960,20.5,11111222 
ADCP,ioos:station:wmo:42887:1,2013-05-22T00:40:00Z,28.1910,-88.4960,20.5,11111222 
ADCP,ioos:station:wmo:42887:1,2013-05-22T01:00:00Z,28.1910,-88.4960,20.4,11111222 
ADCP,ioos:station:wmo:42887:1,2013-05-22T01:20:00Z,28.1910,-88.4960,20.2,11111222 
ADCP,ioos:station:wmo:42887:1,2013-05-22T01:40:00Z,28.1910,-88.4960,20.1,11111222 
ADCP,ioos:station:wmo:42887:1,2013-05-22T02:00:00Z,28.1910,-88.4960,20.3,11111222 
ADCP,ioos:station:wmo:42887:1,2013-05-22T02:20:00Z,28.1910,-88.4960,20.4,11111222 
ADCP,ioos:station:wmo:42887:1,2013-05-22T02:40:00Z,28.1910,-88.4960,20.2,11111222 
ADCP,ioos:station:wmo:42887:1,2013-05-22T03:00:00Z,28.1910,-88.4960,20.3,11111222 
ADCP,ioos:station:wmo:42887:1,2013-05-22T03:20:00Z,28.1910,-88.4960,20.3,11111222 
ADCP,ioos:station:wmo:42887:1,2013-05-22T03:40:00Z,28.1910,-88.4960,20.6,11111222 
ADCP,ioos:station:wmo:42887:1,2013-05-22T04:00:00Z,28.1910,-88.4960,20.8,11111222 
ADCP,ioos:station:wmo:42887:1,2013-05-22T04:20:00Z,28.1910,-88.4960,20.8,11111222 
ADCP,ioos:station:wmo:42887:1,2013-05-22T04:40:00Z,28.1910,-88.4960,20.7,11111222 
ADCP,ioos:station:wmo:42887:1,2013-05-22T05:00:00Z,28.1910,-88.4960,20.8,11111222 
ADCP,ioos:station:wmo:42887:1,2013-05-22T05:20:00Z,28.1910,-88.4960,20.6,11111222 
ADCP,ioos:station:wmo:42887:1,2013-05-22T05:40:00Z,28.1910,-88.4960,20.8,11111222 
ADCP,ioos:station:wmo:42887:1,2013-05-22T06:00:00Z,28.1910,-88.4960,20.7,11111222 
ADCP,ioos:station:wmo:42887:1,2013-05-22T06:20:00Z,28.1910,-88.4960,20.4,11111222 
ADCP,ioos:station:wmo:42887:1,2013-05-22T06:40:00Z,28.1910,-88.4960,19.9,11111222 
ADCP,ioos:station:wmo:42887:1,2013-05-22T07:00:00Z,28.1910,-88.4960,19.7,11111222 
ADCP,ioos:station:wmo:42887:1,2013-05-22T07:20:00Z,28.1910,-88.4960,19.9,11111222 
ADCP,ioos:station:wmo:42887:1,2013-05-22T07:40:00Z,28.1910,-88.4960,20.2,11111222 
ADCP,ioos:station:wmo:42887:1,2013-05-22T08:00:00Z,28.1910,-88.4960,20.1,11111222 
ADCP,ioos:station:wmo:42887:1,2013-05-22T08:20:00Z,28.1910,-88.4960,20.1,11111222 
ADCP,ioos:station:wmo:42887:1,2013-05-22T08:40:00Z,28.1910,-88.4960,20.4,11111222 
ADCP,ioos:station:wmo:42887:1,2013-05-22T09:00:00Z,28.1910,-88.4960,20.9,11111222 
ADCP,ioos:station:wmo:42887:1,2013-05-22T09:20:00Z,28.1910,-88.4960,21.0,11111222 
ADCP,ioos:station:wmo:42887:1,2013-05-22T09:40:00Z,28.1910,-88.4960,20.7,11111222 
ADCP,ioos:station:wmo:42887:1,2013-05-22T10:00:00Z,28.1910,-88.4960,20.4,11111222 
ADCP,ioos:station:wmo:42887:1,2013-05-22T10:20:00Z,28.1910,-88.4960,20.5,11111222 
ADCP,ioos:station:wmo:42887:1,2013-05-22T10:40:00Z,28.1910,-88.4960,20.6,11111222 
ADCP,ioos:station:wmo:42887:1,2013-05-22T11:00:00Z,28.1910,-88.4960,21.1,11111222 
ADCP,ioos:station:wmo:42887:1,2013-05-22T11:20:00Z,28.1910,-88.4960,20.7,11111222 
ADCP,ioos:station:wmo:42887:1,2013-05-22T11:40:00Z,28.1910,-88.4960,20.4,11111222 
ADCP,ioos:station:wmo:42887:1,2013-05-22T12:20:00Z,28.1910,-88.4960,20.5,11111222 
ADCP,ioos:station:wmo:42887:1,2013-05-22T12:40:00Z,28.1910,-88.4960,20.7,11111222 
ADCP,ioos:station:wmo:42887:1,2013-05-22T13:00:00Z,28.1910,-88.4960,20.4,11111222 
ADCP,ioos:station:wmo:42887:1,2013-05-22T13:20:00Z,28.1910,-88.4960,20.2,11111222 
ADCP,ioos:station:wmo:42887:1,2013-05-22T13:40:00Z,28.1910,-88.4960,20.4,11111222 
ADCP,ioos:station:wmo:42887:1,2013-05-22T14:00:00Z,28.1910,-88.4960,19.8,11111222 
ADCP,ioos:station:wmo:42887:1,2013-05-22T14:20:00Z,28.1910,-88.4960,19.9,11111222 
ADCP,ioos:station:wmo:42887:1,2013-05-22T14:40:00Z,28.1910,-88.4960,19.8,11111222 
ADCP,ioos:station:wmo:42887:1,2013-05-22T15:00:00Z,28.1910,-88.4960,19.9,11111222 
ADCP,ioos:station:wmo:42887:1,2013-05-22T15:20:00Z,28.1910,-88.4960,19.8,11111222 
ADCP,ioos:station:wmo:42887:1,2013-05-22T15:40:00Z,28.1910,-88.4960,19.8,11111222 
ADCP,ioos:station:wmo:42887:1,2013-05-22T16:00:00Z,28.1910,-88.4960,20.0,11111222 
ADCP,ioos:station:wmo:42887:1,2013-05-22T17:20:00Z,28.1910,-88.4960,19.2,11111222 
ADCP,ioos:station:wmo:42887:1,2013-05-22T18:00:00Z,28.1910,-88.4960,18.5,11111222 
ADCP,ioos:station:wmo:42887:1,2013-05-22T18:20:00Z,28.1910,-88.4960,19.6,11111222 
ADCP,ioos:station:wmo:42887:1,2013-05-22T18:40:00Z,28.1910,-88.4960,19.8,11111222 
ADCP,ioos:station:wmo:42887:1,2013-05-22T19:00:00Z,28.1910,-88.4960,20.0,11111222 
ADCP,ioos:station:wmo:42887:1,2013-05-22T19:20:00Z,28.1910,-88.4960,20.2,11111222 
ADCP,ioos:station:wmo:42887:1,2013-05-22T19:40:00Z,28.1910,-88.4960,20.4,11111222 
ADCP,ioos:station:wmo:42887:1,2013-05-22T20:00:00Z,28.1910,-88.4960,21.0,11111222 
ADCP,ioos:station:wmo:42887:1,2013-05-22T20:20:00Z,28.1910,-88.4960,21.1,11111222 
ADCP,ioos:station:wmo:42887:1,2013-05-22T20:40:00Z,28.1910,-88.4960,21.1,11111222 
ADCP,ioos:station:wmo:42887:1,2013-05-22T21:00:00Z,28.1910,-88.4960,21.6,11111222 
ADCP,ioos:station:wmo:42887:1,2013-05-22T21:20:00Z,28.1910,-88.4960,22.4,11111222 
ADCP,ioos:station:wmo:42887:1,2013-05-22T21:40:00Z,28.1910,-88.4960,22.8,11111222 
ADCP,ioos:station:wmo:42887:1,2013-05-22T22:00:00Z,28.1910,-88.4960,19.5,11111222 
ADCP,ioos:station:wmo:42887:1,2013-05-22T22:20:00Z,28.1910,-88.4960,15.3,11111222 
ADCP,ioos:station:wmo:42887:1,2013-05-22T22:40:00Z,28.1910,-88.4960,16.9,11111222 
ADCP,ioos:station:wmo:42887:1,2013-05-22T23:00:00Z,28.1910,-88.4960,21.6,11111222 
ADCP,ioos:station:wmo:42887:1,2013-05-22T23:20:00Z,28.1910,-88.4960,22.8,11111222 
ADCP,ioos:station:wmo:42887:1,2013-05-22T23:40:00Z,28.1910,-88.4960,23.1,11111222 
ADCP,ioos:station:wmo:42887:1,2013-05-23T00:00:00Z,28.1910,-88.4960,23.3,11111222 
ADCP,ioos:station:wmo:42887:1,2013-05-23T00:20:00Z,28.1910,-88.4960,23.2,11111222 
ADCP,ioos:station:wmo:42887:1,2013-05-23T00:40:00Z,28.1910,-88.4960,23.1,11111222 
ADCP,ioos:station:wmo:42887:1,2013-05-23T01:00:00Z,28.1910,-88.4960,23.0,11111222 
ADCP,ioos:station:wmo:42887:1,2013-05-23T01:20:00Z,28.1910,-88.4960,21.4,11111222 
ADCP,ioos:station:wmo:42887:1,2013-05-23T01:40:00Z,28.1910,-88.4960,22.4,11111222 
ADCP,ioos:station:wmo:42887:1,2013-05-23T02:00:00Z,28.1910,-88.4960,22.8,11111222 
ADCP,ioos:station:wmo:42887:1,2013-05-23T02:20:00Z,28.1910,-88.4960,22.6,11111222 
ADCP,ioos:station:wmo:42887:1,2013-05-23T02:40:00Z,28.1910,-88.4960,22.5,11111222 
ADCP,ioos:station:wmo:42887:1,2013-05-23T03:00:00Z,28.1910,-88.4960,22.8,11111222 
ADCP,ioos:station:wmo:42887:1,2013-05-23T03:20:00Z,28.1910,-88.4960,22.6,11111222 
ADCP,ioos:station:wmo:42887:1,2013-05-23T03:40:00Z,28.1910,-88.4960,22.5,11111222 
ADCP,ioos:station:wmo:42887:1,2013-05-23T04:00:00Z,28.1910,-88.4960,22.6,11111222 
ADCP,ioos:station:wmo:42887:1,2013-05-23T04:20:00Z,28.1910,-88.4960,22.8,11111222 
ADCP,ioos:station:wmo:42887:1,2013-05-23T04:40:00Z,28.1910,-88.4960,22.8,11111222 
ADCP,ioos:station:wmo:42887:1,2013-05-23T05:00:00Z,28.1910,-88.4960,22.8,11111222 
ADCP,ioos:station:wmo:42887:1,2013-05-23T05:20:00Z,28.1910,-88.4960,22.9,11111222 
ADCP,ioos:station:wmo:42887:1,2013-05-23T05:40:00Z,28.1910,-88.4960,22.9,11111222 
ADCP,ioos:station:wmo:42887:1,2013-05-23T06:00:00Z,28.1910,-88.4960,22.9,11111222 
ADCP,ioos:station:wmo:42887:1,2013-05-23T06:20:00Z,28.1910,-88.4960,22.8,11111222 
ADCP,ioos:station:wmo:42887:1,2013-05-23T06:40:00Z,28.1910,-88.4960,22.7,11111222 
ADCP,ioos:station:wmo:42887:1,2013-05-23T07:00:00Z,28.1910,-88.4960,22.7,11111222 
ADCP,ioos:station:wmo:42887:1,2013-05-23T07:20:00Z,28.1910,-88.4960,22.7,11111222 
ADCP,ioos:station:wmo:42887:1,2013-05-23T07:40:00Z,28.1910,-88.4960,22.7,11111222 
ADCP,ioos:station:wmo:42887:1,2013-05-23T08:00:00Z,28.1910,-88.4960,22.5,11111222 